Home > Weather > Jerusalem > Past weeks

Flag for Israel Past Weather in Jerusalem, Israel — Yesterday and Last 2 Weeks

Now
95 °F

Sunny.


Feels Like: 90 °F
Forecast: 55 / 67 °F
Wind: 17 mph from Southwest

Location: Ben Gurion International Airport

Current Time: May 26, 2016 at 12:00:00 PM

Latest Report: May 26, 2016 at 11:20 AM


Visibility: 10 mi

Pressure: 29.71 "Hg (27.28 "Hg at 769m altitude)

Humidity: 13%

Dew Point: 37 °F

Location of JerusalemLocation

Past Weather in Jerusalem — Graph

°F

Jerusalem Temperature Yesterday

Maximum temperature yesterday: 79 °F (at 12:20 PM)
Minimum temperature yesterday: 66 °F (at 4:50 AM)
Average temperature yesterday: 73 °F

High & Low Weather Summary for the Past Weeks

 TemperatureHumidityPressure
High106 °F (May 15, 12:50 PM)88% (May 12, 11:20 PM)30.01 "Hg (May 12, 11:20 PM)
Low61 °F (May 12, 3:20 AM)9% (May 22, 11:50 AM)29.71 "Hg (May 16, 5:50 PM)
Average76 °F54%29.92 "Hg
* Reported May 11 10:20 AM — May 26 10:20 AM, Jerusalem, Weather by CustomWeather, © 2016

Note: Actual official high and low records may vary slightly from our data, if they occured in-between our weather recording intervals... More about our weather records

Advertising

Jerusalem Weather History for the Previous 24 Hours

Scroll right to see more
 ConditionsComfort  
Time TempWeatherWind HumidityBarometerVisibility
10:20 AM
Thu, May 26
93 °FSunny.16 mph15%29.71 "Hg10 mi
9:50 AM91 °FSunny.14 mph17%29.74 "Hg10 mi
9:20 AM88 °FSunny.12 mph21%29.74 "Hg10 mi
8:50 AM81 °FClear.2 mph30%29.74 "Hg6 mi
8:20 AM77 °FClear.2 mph34%29.74 "Hg6 mi
7:50 AM75 °FClear.2 mph31%29.74 "Hg6 mi
7:20 AM72 °FClear.5 mph38%29.74 "Hg6 mi
6:50 AM70 °FClear.2 mph40%29.77 "Hg6 mi
6:20 AM64 °FClear.5 mph52%29.77 "Hg6 mi
5:50 AM68 °FClear.2 mph43%29.74 "Hg10 mi
5:20 AM68 °FClear.1 mph43%29.74 "Hg10 mi
4:50 AM68 °FClear.1 mph43%29.77 "Hg10 mi
4:20 AM68 °FClear.2 mph43%29.77 "Hg10 mi
3:50 AM68 °FClear.6 mph40%29.77 "Hg10 mi
3:20 AM70 °FClear.9 mph40%29.80 "Hg10 mi
2:50 AM70 °FClear.7 mph43%29.80 "Hg10 mi
2:20 AM68 °FClear.1 mph53%29.83 "Hg10 mi
1:50 AM70 °FClear.3 mph57%29.83 "Hg10 mi
1:20 AM68 °FClear.2 mph60%29.86 "Hg6 mi
12:50 AM70 °FClear.5 mph60%29.86 "Hg10 mi
12:20 AM70 °FClear.5 mph60%29.86 "Hg6 mi
11:50 PM
Wed, May 25
70 °FClear.6 mph60%29.89 "Hg6 mi
11:20 PM70 °FClear.7 mph64%29.89 "Hg6 mi
10:50 PM72 °FClear.7 mph61%29.92 "Hg6 mi
10:20 PM72 °FClear.7 mph61%29.92 "Hg10 mi
9:50 PM72 °FClear.5 mph65%29.92 "Hg10 mi
9:20 PM72 °FClear.2 mph69%29.92 "Hg10 mi
8:50 PM72 °FClear.3 mph69%29.92 "Hg10 mi
8:20 PM72 °FSunny.6 mph69%29.92 "Hg10 mi
7:50 PM72 °FSunny.7 mph65%29.92 "Hg10 mi
7:20 PM73 °FSunny.7 mph61%29.92 "Hg10 mi
6:50 PM75 °FSunny.7 mph57%29.92 "Hg10 mi
6:20 PM75 °FSunny.9 mph54%29.92 "Hg10 mi
5:50 PM77 °FSunny.12 mph47%29.92 "Hg10 mi
5:20 PM77 °FSunny.12 mph47%29.92 "Hg10 mi
4:50 PM77 °FSunny.10 mph44%29.92 "Hg10 mi
4:20 PM79 °FSunny.10 mph39%29.92 "Hg10 mi
3:50 PM79 °FSunny.10 mph39%29.92 "Hg10 mi
3:20 PM79 °FSunny.10 mph39%29.95 "Hg10 mi
2:50 PM79 °FSunny.10 mph39%29.95 "Hg10 mi
2:20 PM79 °FPassing clouds.10 mph42%29.95 "HgN/A
1:50 PM79 °FSunny.12 mph39%29.95 "Hg10 mi
1:20 PM79 °FPassing clouds.8 mph39%29.95 "HgN/A
12:50 PM79 °FPassing clouds.9 mph39%29.98 "HgN/A
12:20 PM79 °FPassing clouds.8 mph42%29.98 "HgN/A
Weather by CustomWeather, © 2016

See weather overviewHow to use our weather pages